Regional Weather Roundup
Issued by NWS

Home | Current Version | Previous Version | Text Only | Print | Product List | Glossary Off
Versions: 1 2 3 4 5 6 7 8 9 10 11 12 13 14 15 16 17 18 19 20 21 22 23 24 25 26 27 28 29 30 31 32 33 34 35 36 37 38 39 40 41 42 43 44 45 46 47 48 49 50

000
ASUS45 KSLC 302010
RWRUT

UTAH REGIONAL WEATHER ROUNDUP
NATIONAL WEATHER SERVICE SALT LAKE CITY UT
200 PM MDT WED JUL 30 2014

UTZ001>011-023>025-302100-

NORTHERN UTAH

CITY           SKY/WX    TMP DP  RH WIND       PRES   REMARKS
HILL AFB       PTSUNNY   73  58  59 E16G24    30.24S
LOGAN          MOSUNNY   77  55  46 MISG      30.23F
OGDEN          CLOUDY    77  57  50 S10       30.21F
PROVO AIRPORT  PTSUNNY   73  57  56 W10       30.22F
SALT LAKE CITY PTSUNNY   77  59  53 VRB3      30.20F
VERNAL         CLOUDY    69  56  62 NW13      30.25S
WENDOVER       SUNNY     82  54  36 E12G18    30.20F
HEBER CITY     CLOUDY    68  55  64 N13       30.29R
WEST JORDAN    CLOUDY    72  66  83 NW9       30.24S

$$

UTZ012>022-026-027-302100-

SOUTHERN UTAH

CITY           SKY/WX    TMP DP  RH WIND       PRES   REMARKS
BRYCE CANYON   MOSUNNY   74  48  39 NW15      30.37F
CEDAR CITY     SUNNY     82  52  35 VRB6      30.24F
MILFORD        MOSUNNY   84  53  34 N10G17    30.21F
MOAB/CYNLANDS  SUNNY     80  56  43 VRB3      30.15F
PRICE          PTSUNNY   81  50  33 NW7       30.24S
ST GEORGE      CLOUDY    97  52  21 W9        30.02F HX  94
KANAB          PTSUNNY   88  50  27 S12       30.18F

$$

REGIONAL REPORTS     COLORADO/ARIZONA

CITY           SKY/WX    TMP DP  RH WIND       PRES   REMARKS
CRAIG, CO      CLOUDY    67  55  65 W6        30.28F
GRAND JUNCTION PTSUNNY   78  53  41 CALM      30.16F
RIFLE          PTSUNNY   77  52  41 VRB6      30.21F
MONTROSE       SUNNY     79  51  37 VRB5      30.23F
CORTEZ         SUNNY     84  46  26 MISG      30.21F
PAGE, AZ       SUNNY     92  49  22 VRB6      30.10F
GRAND CANYON   MOSUNNY   81  45  28 VRB6G18   30.31S
KINGMAN        MOSUNNY   95  47  19 MISG      30.05F HX  91
FLAGSTAFF      MOSUNNY   81  43  26 SW14      30.34F

$$

REGIONAL REPORTS    NEVADA/IDAHO/WYOMING

CITY           SKY/WX    TMP DP  RH WIND       PRES   REMARKS
LAS VEGAS, NV  MOSUNNY  101  52  19 CALM      29.93F HX  98
ELY            SUNNY     79  44  28 N10       30.32F
ELKO           SUNNY     87  42  20 E10G16    30.24F
POCATELLO, ID  MOSUNNY   81  50  33 VRB3      30.22F
BURLEY         SUNNY     82  53  36 VRB5      30.20F
EVANSTON, WY   CLOUDY    61  54  77 E16G24    30.39S
ROCK SPRINGS   LGT RAIN  61  52  72 NE13      30.38R

$$


USA.gov is the U.S. government's official web portal to all federal, state and local government web resources and services.